STARLINK-36741, 67727

Orbit data source: Space-Track

STARLINK-36741, 67727 is a payload satellite owned by SpaceX/Seattle (US) in SSO that was launched on Wed, 11 Feb 2026 UTC via an FALCON 9 launch vehicle from the Air Force Western Test Range (AFWTR). Payload-class satellites include a variety of spacecraft equipped with specific instruments for various scientific and technological missions. These include communications satellites like Starlink; space stations such as the ISS; scientific satellites like the Hubble; Earth observation satellites from companies like Planet Labs, Umbra, and HawkEye 360; GPS; miniature CubeSats for education and research; and military/defense satellites.

Loading next visibility...
Identifier
67727, 2026-026G
Orbit
SSO
Country
Flag of USUS
Related business
Manufacturer
SpaceX/Seattle
Mission
Operational Commercial Communications
Bus & Motor
STARLINK V2MO, Unknown motor
Mass
575 kg wet, ~530 kg dry
Launch date (UTC)
2026-02-11 (3 months ago)
Launch vehicle
FALCON 9
Launch site
Air Force Western Test Range (AFWTR)
Object type
Payload
Rocket body
Debris
Shape & HBR
Box + 2 Pan, 17.7 m
Radar Cross Section
36.964 m²

Expand to show TLE details & history
Last TLE update: 9 hours ago

TLE from 9 hours ago
0 STARLINK-36741
1 67727U 26026G   26130.15326530  .00012070  00000-0  37562-3 0  9998
2 67727  97.2845 183.8614 0001508  84.5298 275.6117 15.33442892 13540
Epoch: 2026-05-10T03:40Z
TLE epoch observation values (Epoch: 2026-05-10T03:40:42.121Z)
Latitude
-0.00003°
Longitude
-99.27454°
Altitude
468.561 km
Speed
7.632 km/s
True Right ascension
12h 15m 26s
True Declination
0° 00' 00"
Sunlit
Object was in full shadow at epoch
Visualization orbit readout
Latitude
Unknown
Longitude
Unknown
Altitude
Unknown
Speed
Unknown
Apparent Right ascension
Unknown
Apparent Declination
Unknown
Sunlit
N/A
Visualization observer readout
Local Sidereal Time
21:22:14
Azimuth
Unknown
Elevation
Unknown
Doppler factor
Unknown
Orbital elements
Apogee altitude
463.524 km
Perigee altitude
461.461 km
Semi-major axis
6,840.629 km
Eccentricity
0.00015
Inclination
97.2845°
RAAN
183.8614°
Arg. of periapsis
84.5298°
True anomaly
275.5945°
Mean anomaly
275.6117°
Eccentric anomaly
275.6031°
Mean motion
3.83618 °/min
Orbital period
93.84 mins
BSTAR
0.00037562
Loading maneuver chart data...
Computing Atmospheric mass density...
Loading historical data...
Loading historical data...
Loading historical data...
Loading historical data...
Loading historical data...
Loading historical data...
Loading historical data...

Documentation

Showing up to 5 results
|